Charleston, WV

7:08 AM EDT on August 28, 2016 (GMT -0400)
Yeager Airport

Weather History for KCRW - July, 2013

Change the Weather History Date:

Thursday, July 11, 2013

  Actual Average Record
Temperature  
Mean Temperature 73 °F 76 °F  
Max Temperature 78 °F 86 °F 101 °F (1936)
Min Temperature 68 °F 66 °F 50 °F (1961)
Degree Days  
Heating Degree Days 0 0  
Month to date heating degree days 0 0  
Since 1 June heating degree days 0 13  
Since 1 July heating degree days 0 0  
Cooling Degree Days 8 11  
Month to date cooling degree days 120 114  
Year to date cooling degree days 502 444  
Since 1 June cooling degree days 355 334  
Growing Degree Days 23 (Base 50)    
Moisture  
Dew Point 67 °F    
Average Humidity 84    
Maximum Humidity 93    
Minimum Humidity 74    
Precipitation  
Precipitation 0.43 in 0.16 in 1.25 in (1932)
Month to date precipitation 3.35 1.65  
Year to date precipitation 25.90 24.08  
Snow  
Snow 0.00 in - - ()
Month to date snowfall 0.0  
Since 1 September snowfall 25.3  
Snow Depth 0.00 in    
Sea Level Pressure  
Sea Level Pressure 29.95 in    
Wind  
Wind Speed 2 mph (NE)    
Max Wind Speed 13 mph    
Max Gust Speed 37 mph    
Visibility 5 miles    
Events Rain , Thunderstorm    
T = Trace of Precipitation, MM = Missing Value Source: NWS Daily Summary

Daily Weather History Graph

Daily Weather History Graph

Search for Another Location

Airport or City:

Trip Planner

Search our weather history database for the weather conditions in past years. The results will help you decide how hot, cold, wet, or windy it might be!

Date:

Astronomy

Jul. 11, 2013 Rise Set
Actual Time 6:12 AM EDT 8:51 PM EDT
Civil Twilight 5:41 AM EDT 9:22 PM EDT
Nautical Twilight 5:02 AM EDT 10:00 PM EDT
Astronomical Twilight 4:18 AM EDT 10:44 PM EDT
Moon 9:26 AM EDT (7/11) 10:34 PM EDT (7/11)
Length of Visible Light 15h 41m
Length of Day
14h 39m
Waxing Crescent, 10% of the Moon is Illuminated
Jul 11
Waxing Crescent
Jul 15
First Quarter
Jul 22
Full
Jul 29
Last Quarter
Aug 6
New

Hourly Weather History & Observations

Time (EDT) Temp. Dew Point Humidity Pressure Visibility Wind Dir Wind Speed Gust Speed Precip Events Conditions
12:54 AM 69.1 °F 66.0 °F 90% 29.93 in 8.0 mi Calm Calm - N/A   Scattered Clouds
1:54 AM 68.0 °F 66.0 °F 93% 29.92 in 5.0 mi Calm Calm - N/A   Mostly Cloudy
2:01 AM 69.8 °F 66.2 °F 88% 29.95 in 1.0 mi Calm Calm - N/A   Mostly Cloudy
2:54 AM 69.1 °F 66.9 °F 93% 29.93 in 1.0 mi Calm Calm - N/A   Mostly Cloudy
3:54 AM 69.1 °F 66.0 °F 90% 29.93 in 1.0 mi SW 6.9 mph - N/A   Scattered Clouds
4:54 AM 69.1 °F 66.0 °F 90% 29.93 in 1.0 mi SW 3.5 mph - N/A   Scattered Clouds
5:54 AM 69.1 °F 66.0 °F 90% 29.94 in 1.0 mi Calm Calm - N/A   Scattered Clouds
6:41 AM 69.8 °F 66.2 °F 88% 29.98 in 1.0 mi Calm Calm - N/A   Mostly Cloudy
6:54 AM 69.1 °F 66.9 °F 93% 29.96 in 1.0 mi Calm Calm - N/A   Mostly Cloudy
7:54 AM 69.1 °F 66.9 °F 93% 29.97 in 1.0 mi Calm Calm - 0.00 in Rain Light Rain
8:54 AM 70.0 °F 66.9 °F 90% 29.98 in 1.0 mi Calm Calm - 0.01 in Rain Light Rain
9:54 AM 71.1 °F 68.0 °F 90% 29.97 in 1.0 mi Calm Calm - 0.00 in   Overcast
10:37 AM 71.6 °F 66.2 °F 83% 29.99 in 4.0 mi NE 3.5 mph - 0.00 in Rain Light Rain
10:54 AM 71.1 °F 66.9 °F 87% 29.98 in 4.0 mi NE 3.5 mph - 0.00 in Rain Light Rain
11:54 AM 72.0 °F 68.0 °F 87% 29.97 in 5.0 mi NNE 3.5 mph - 0.00 in   Overcast
12:54 PM 75.9 °F 66.9 °F 74% 29.97 in 10.0 mi Calm Calm - N/A   Overcast
1:54 PM 75.9 °F 68.0 °F 76% 29.96 in 10.0 mi Calm Calm - 0.00 in Rain Light Rain
2:54 PM 75.9 °F 69.1 °F 79% 29.94 in 10.0 mi South 6.9 mph - 0.00 in   Overcast
3:54 PM 73.0 °F 69.1 °F 87% 29.94 in 5.0 mi Variable 3.5 mph - 0.19 in Rain Heavy Rain
4:54 PM 75.0 °F 70.0 °F 84% 29.92 in 7.0 mi Calm Calm - 0.10 in   Mostly Cloudy
5:20 PM 75.2 °F 69.8 °F 83% 29.95 in 10.0 mi Calm Calm - N/A   Mostly Cloudy
5:54 PM 78.1 °F 70.0 °F 76% 29.92 in 10.0 mi East 4.6 mph - N/A   Mostly Cloudy
6:54 PM 75.0 °F 68.0 °F 79% 29.91 in 10.0 mi ESE 3.5 mph - N/A   Mostly Cloudy
7:48 PM 73.4 °F 69.8 °F 88% 29.94 in 10.0 mi Calm Calm - N/A Thunderstorm Thunderstorm
7:54 PM 73.9 °F 69.1 °F 85% 29.92 in 10.0 mi Calm Calm - N/A Thunderstorm Thunderstorm
8:23 PM 71.6 °F 66.2 °F 83% 29.95 in 4.0 mi North 6.9 mph 20.7 mph 0.04 in Rain , Thunderstorm Heavy Thunderstorms and Rain
8:44 PM 69.8 °F 66.2 °F 88% 29.95 in 6.0 mi Calm Calm - 0.13 in Rain Light Rain
8:54 PM 71.1 °F 66.9 °F 87% 29.94 in 6.0 mi North 3.5 mph - 0.13 in Rain Light Rain
9:54 PM 71.1 °F 66.0 °F 84% 29.94 in 7.0 mi NNE 4.6 mph - 0.00 in   Overcast
10:54 PM 70.0 °F 64.9 °F 84% 29.96 in 10.0 mi Calm Calm - N/A   Overcast
11:54 PM 69.1 °F 66.0 °F 90% 29.95 in 5.0 mi Calm Calm - N/A   Overcast